Regional Weather Roundup
Issued by NWS

Home | Current Version | Previous Version | Text Only | Print | Product List | Glossary On
Versions: 1 2 3 4 5 6 7 8 9 10 11 12 13 14 15 16 17 18 19 20 21 22 23 24 25 26 27 28 29 30 31 32 33 34 35 36 37 38 39 40 41 42 43 44 45 46 47 48 49 50
000
ASUS44 KOUN 281210
RWROK

WEATHER ROUNDUP FOR OKLAHOMA
NATIONAL WEATHER SERVICE NORMAN OK
600 AM CST FRI NOV 28 2014

NOTE: "FAIR" INDICATES FEW OR NO CLOUDS BELOW 12,000 FEET WITH NO
      SIGNIFICANT WEATHER AND/OR OBSTRUCTIONS TO VISIBILITY.

OKZ001>007-009>012-014-015-017-281300-
NORTHWEST OKLAHOMA AND THE PANHANDLE

CITY           SKY/WX    TMP DP  RH WIND       PRES   REMARKS
GAGE           CLEAR     39  30  70 SW7       30.02S WCI  34
6HR MIN TEMP:  39; 6HR MAX TEMP:  45;

$$

OKZ016-021>023-033>039-044-045-281300-
SOUTHWEST OKLAHOMA

CITY           SKY/WX    TMP DP  RH WIND       PRES   REMARKS
LAWTON/REGL    CLEAR     35  29  78 S5        30.15F WCI  31
6HR MIN TEMP:  32; 6HR MAX TEMP:  39;

LAWTON/FT SILL CLEAR     37  30  75 S7        30.13F WCI  32
FREDERICK      PTCLDY    36  31  82 S8        30.11F WCI  30
CLINTON        CLEAR     41  32  70 S22       30.06F
HOBART         CLEAR     38  32  79 S16       30.09F WCI  29
ALTUS AFB      PTCLDY    33  33  99 SE7       30.12F WCI  27
$$

OKZ018>020-024>031-281300-
CENTRAL OKLAHOMA

CITY           SKY/WX    TMP DP  RH WIND       PRES   REMARKS
OKLAHOMA CITY  PTCLDY    39  27  62 S10       30.11F WCI  32
6HR MIN TEMP:  39; 6HR MAX TEMP:  46;

OKC/WILEY POST CLEAR     43  28  55 S13       30.11F
OKC/TINKER AFB CLEAR     42  27  56 S15       30.12F
STILLWATER     CLEAR     40  27  59 S8        30.11F WCI  34
GUTHRIE        CLEAR     46  28  49 S12G18    30.10F
$$

OKZ008-013-054>072-281300-
NORTHEAST OKLAHOMA

CITY           SKY/WX    TMP DP  RH WIND       PRES   REMARKS
TULSA          CLEAR     41  28  60 S17       30.15F
6HR MIN TEMP:  39; 6HR MAX TEMP:  42;

TULSA/JONES    CLEAR     41  27  57 S5        30.17F
PONCA CITY     CLEAR     43  26  51 S8        30.08F
BARTLESVILLE   CLEAR     28  24  85 CALM      30.14F
MUSKOGEE       CLEAR     34  28  79 S9        30.23F WCI  27
$$

OKZ032-040>043-046>053-073>077-281300-
SOUTH CENTRAL/SOUTHEAST OKLAHOMA

CITY           SKY/WX    TMP DP  RH WIND       PRES   REMARKS
ARDMORE/DWNTWN CLEAR     36  30  80 CALM      30.21F
MCALESTER      MOCLDY    43  28  55 S7        30.24F
$$



USA.gov is the U.S. government's official web portal to all federal, state and local government web resources and services.